Meath Environmental Platform

Observations

Time Sensor AQI SAQ Temp °C Hum % Pres Pa CO μg/m³ H₂S μg/m³ NO μg/m³ NO₂ μg/m³ O₃ μg/m³ SO₂ μg/m³ CO₂e PPM VOC PPM PM1 μg/m³ PM2.5 μg/m³ PM4 μg/m³ PM10 μg/m³ TPS µm
Thursday 13 August 2026
03:16 Trim Market St 2 21.4 72 48,428 0.07 0 1.12 19.33 45.55 0 3.56 4.91 8.76
03:15 Trim Patrick St 2 20.8 76 38,460 0.01 6.32 1.21 15.82 37.43 5.44 6.29 10.45 11.49
03:15 Trim Market St 2 21.4 72 48,758 0.07 2.3 1.11 23.92 42.05 0 2.85 4.44 7.53
03:14 Trim Patrick St 2 20.8 76 38,460 0 10.65 1.22 16.29 36.46 6.3 7.14 10.47 11.51
03:13 Trim Patrick St 2 20.8 75 38,460 0 14.57 1.13 20.03 25.99 5.8 7.14 10.53 11.58
03:13 Trim Market St 2 21.4 71 49,383 0.06 0.61 1.09 20.86 42.51 0 5.7 6.86 10
03:12 Trim Patrick St 2 20.8 72 38,460 0 19.19 1.08 49.89 36.01 6.3 8.86 13.58 14.94
03:11 Trim Patrick St 2 20.8 73 38,460 0 16.52 1.08 28.26 17.47 5.2 8.86 14.26 15.69
03:11 Trim Market St 2 21.4 71 49,904 0.09 0.77 1.09 19.46 44.05 0 2.14 4.45 6.91
03:10 Trim Market St 2 21.3 71 50,225 0.1 1.75 1.09 25.27 47.64 0 3.56 5.91 8.77
03:09 Trim Market St 2 21.4 71 50,516 0.09 0.27 1.09 18.99 46.32 0 2.85 4.94 7.53
03:08 Trim Patrick St 2 20.8 70 38,460 0 19.84 1.04 59.45 22.15 5.1 8.86 13.79 15.17
03:08 Trim Market St 2 21.3 71 50,848 0.11 1.54 1.1 22.37 47.03 0 3.56 4.95 7.53
03:07 Trim Patrick St 2 20.8 74 38,460 0 18.98 1.1 48.99 26.88 6.43 8 12.07 13.28
03:07 Trim Market St 2 21.3 71 51,209 0.11 1.75 1.08 22.13 45.85 0 3.56 5.92 8.77
03:06 Trim Patrick St 2 20.8 75 38,460 0 15.65 1.12 28.45 29.31 5.8 6.29 10.52 11.57
03:04 Trim Patrick St 2 20.8 75 38,460 0 13.65 1.12 38.33 23.08 4.99 5.43 9.11 10.02
03:03 Trim Patrick St 2 20.8 75 38,460 0 17.53 1.15 32.71 30.23 6.39 8.86 14.07 15.48
03:03 Trim Market St 2 21.3 70 51,971 0.04 3.54 1.07 26.29 47.94 0 3.56 6.43 10.03
03:02 Trim Patrick St 2 20.7 75 38,460 0 21.82 1.12 38.55 31.95 6.6 8 12.67 13.94